Theta_e
306 307 307 307 309 309 309 309 309 309 309 309 310 312 312 312 308 305 307 308 304 296 300 301 300 297 297 295 291 296 296 294 295 289 292 293 292 295 292 295 293 291 290 290 292 288 285 303 300 292 298 301 299 298
304 305 306 306 306 307 308 308 308 308 308 309 309 310 311 311 308 307 302 308 308 297 299 306 305 305 302 300 296 294 295 293 294 289 294 295 293 295 293 289 298 292 298 294 294 295 302 304 301 302 301 299 298 297
303 303 304 305 305 306 306 307 307 307 308 308 309 310 310 310 309 307 304 304 300 296 297 299 300 305 309 306 305 292 293 297 298 297 292 295 292 296 292 292 294 298 300 297 296 298 299 302 304 302 302 300 300 300
303 303 303 303 304 305 305 305 305 306 307 308 308 309 310 310 310 308 303 304 302 296 290 297 307 303 307 307 305 304 299 300 299 298 294 295 293 299 294 296 295 298 299 295 295 297 301 301 301 301 301 301 301 300
303 303 303 303 303 303 304 304 304 304 305 306 308 310 310 310 310 307 304 304 305 298 291 294 303 306 306 305 305 303 300 298 294 294 295 295 298 297 297 297 294 299 297 297 292 298 297 298 301 303 301 299 300 299
303 303 303 303 303 303 303 303 303 304 305 306 308 310 310 310 306 302 296 302 304 302 292 290 301 301 303 304 301 298 297 295 295 294 296 299 301 298 294 291 297 300 300 301 297 301 300 301 303 303 300 300 301 301
303 303 303 303 303 303 303 303 303 303 304 306 307 309 309 306 306 299 298 303 304 302 295 291 294 299 301 298 297 297 297 296 295 297 297 298 299 298 296 292 299 299 300 300 302 302 299 301 299 301 300 301 302 302
303 303 303 303 303 303 303 303 303 303 303 305 306 308 306 304 303 300 303 304 305 300 299 289 290 294 301 293 292 298 294 295 298 296 298 297 300 299 293 299 299 300 300 300 300 302 301 300 300 299 301 301 299 299
303 303 303 303 303 303 303 303 302 302 303 304 307 305 303 301 297 299 304 304 303 297 289 289 287 288 297 295 297 297 299 293 300 295 296 298 296 293 297 299 299 300 298 299 300 299 299 297 298 299 299 299 296 297
303 303 303 303 302 303 303 303 303 302 303 305 303 297 292 297 305 305 299 293 293 292 292 289 294 292 295 291 293 294 297 291 289 294 301 296 296 301 301 302 302 300 300 299 295 295 295 295 297 297 298 298 297 296
303 304 303 303 302 303 303 304 304 303 304 300 296 293 300 304 299 297 290 289 290 287 292 292 293 291 299 290 288 295 289 292 289 294 294 294 293 296 300 300 301 300 299 299 298 297 297 296 297 297 298 298 297 296
303 303 303 303 303 304 304 305 303 303 300 299 298 300 299 294 291 288 288 291 288 288 294 291 292 293 294 297 291 291 291 294 288 298 294 291 294 299 299 299 300 299 299 298 297 296 296 297 298 297 298 298 297 296
303 303 303 303 303 303 304 304 304 303 302 300 294 291 291 292 286 285 284 288 289 293 295 292 289 292 292 293 291 290 290 290 300 293 291 293 297 299 299 300 298 299 299 297 296 295 295 296 297 297 297 298 299 298
303 302 302 302 302 303 304 303 304 302 299 291 290 285 288 285 288 291 291 293 297 297 292 290 290 289 290 289 293 290 295 295 289 287 289 295 298 297 300 299 299 297 297 296 295 295 294 294 295 295 297 297 297 297
302 302 302 302 302 303 304 304 303 303 296 289 290 287 289 295 296 297 298 297 298 299 295 292 293 292 293 292 294 293 289 287 290 290 294 296 297 299 299 299 297 296 296 296 295 295 294 294 294 294 296 296 296 296
302 301 302 303 303 303 304 304 301 300 295 291 291 291 294 294 293 295 295 295 300 298 297 296 292 292 292 293 291 289 289 288 293 294 297 298 298 298 299 298 297 296 297 297 295 295 295 294 294 294 296 296 295 295
300 299 304 303 303 304 303 299 297 293 290 290 291 296 295 296 295 299 298 297 301 294 291 294 290 289 296 292 290 297 292 296 298 298 299 300 298 299 299 297 296 296 296 296 295 294 294 295 295 294 293 294 295 295
298 304 302 304 303 300 298 298 293 291 289 293 292 296 297 299 296 297 299 300 296 294 296 293 298 292 289 288 292 297 299 300 300 300 299 299 300 299 298 297 296 296 296 296 295 295 295 294 293 293 294 294 295 294
301 302 303 302 301 297 292 293 294 289 293 295 297 298 297 297 299 300 300 300 299 299 298 298 293 293 294 298 298 299 300 299 297 299 300 300 299 298 297 297 297 296 296 295 295 295 295 295 294 294 293 293 293 293
301 302 302 302 302 294 291 291 296 292 291 296 298 295 295 295 297 298 299 300 297 296 295 294 295 298 299 302 302 301 301 300 299 297 296 297 298 298 297 297 296 296 295 295 294 291 295 294 295 294 294 293 292 293
300 301 301 302 298 299 297 294 293 294 297 294 297 296 295 297 295 296 296 299 293 294 294 298 299 301 303 303 304 303 301 301 299 298 296 295 297 297 296 297 297 296 295 295 295 293 294 293 293 294 294 293 293 294
299 301 299 299 295 295 294 298 295 297 295 296 295 296 294 293 294 295 298 292 291 295 299 299 300 301 301 301 301 302 301 301 300 297 294 295 295 295 295 296 295 294 295 295 295 294 294 293 293 294 293 292 292 293
300 299 296 295 292 291 292 299 293 294 291 293 295 292 294 293 296 299 291 292 296 301 301 301 301 303 301 302 302 301 301 300 298 297 297 297 297 296 296 296 297 295 294 294 296 295 294 288 292 292 292 291 291 291
300 294 291 291 292 290 294 292 295 294 294 292 292 289 292 293 294 291 290 293 299 301 300 301 301 300 300 301 299 299 300 300 298 298 298 296 295 295 296 295 295 295 295 296 295 295 294 293 289 291 290 289 288 289
290 289 290 287 292 289 287 288 289 289 287 289 289 290 293 293 289 288 291 295 297 297 299 300 300 299 298 298 299 300 302 299 297 295 297 297 296 295 294 294 294 295 296 295 293 293 291 291 290 289 289 287 286 287
286 290 288 289 289 288 290 286 287 287 287 287 290 296 294 291 288 288 293 297 298 299 300 299 299 298 298 300 299 299 299 300 298 296 296 297 296 295 293 292 292 292 295 294 291 289 289 289 288 287 287 287 284 286
285 287 292 296 294 293 292 293 292 290 287 288 292 292 289 286 288 293 299 300 299 301 302 302 301 299 300 300 300 301 301 300 299 297 298 298 297 298 297 294 292 292 293 291 290 289 288 288 287 287 286 287 287 286
291 293 288 292 292 294 289 290 289 288 290 295 295 290 288 289 289 293 298 301 302 302 302 302 302 301 300 299 299 299 299 299 298 297 297 297 297 296 295 293 291 284 287 287 288 288 288 287 287 286 286 286 286 287
290 295 294 289 290 291 291 291 291 296 300 297 294 290 290 293 292 297 300 302 303 301 299 298 298 300 299 299 299 299 298 297 295 292 292 291 292 293 295 294 292 291 290 286 279 282 284 285 285 285 286 286 286 287
291 295 290 290 288 289 293 296 295 297 299 296 294 293 295 295 295 296 301 300 299 298 299 299 298 297 295 296 296 297 298 299 299 297 294 293 294 295 294 293 290 290 290 289 288 286 280 284 284 287 285 284 284 284
295 293 291 290 289 294 296 297 299 295 294 291 293 294 293 293 295 299 299 302 300 300 299 298 298 298 298 297 296 296 295 299 299 299 299 297 296 295 293 291 290 290 289 288 287 286 286 285 284 283 282 281 281 281
293 291 290 287 287 291 293 291 290 289 289 289 289 291 293 293 291 294 298 299 298 298 294 297 297 297 299 300 300 299 292 298 297 297 296 296 294 293 290 289 289 288 287 286 286 285 284 283 282 281 280 279 279 279
290 290 290 288 287 287 289 289 289 287 288 289 289 290 290 291 288 294 299 300 300 299 298 299 299 300 300 299 298 296 293 294 287 283 284 284 284 286 289 289 288 287 287 286 285 284 282 280 279 278 277 276 276 275
Wind_Speed
13 13 12 11 10 9 6 6 7 8 8 11 11 9 7 10 14 6 2 3 2 3 8 7 7 8 6 4 3 5 7 0 3 3 5 3 3 1 2 3 6 8 6 7 8 4 5 10 11 8 12 17 19 20
13 12 10 9 10 9 7 7 8 7 9 8 8 8 7 5 17 10 1 3 2 2 6 9 11 13 10 10 2 2 5 2 0 3 4 3 4 3 4 2 3 3 2 2 2 3 5 7 9 6 11 15 15 19
13 14 12 11 11 9 7 7 6 7 8 8 8 9 9 8 18 13 3 4 2 2 8 8 7 10 11 14 11 4 3 6 3 1 3 4 5 4 2 4 5 3 1 4 5 1 11 12 9 13 16 16 18 17
12 13 12 11 11 10 8 8 8 8 8 8 8 9 10 10 16 13 3 4 1 1 2 2 5 6 8 10 12 14 2 2 2 3 4 4 4 5 3 4 6 1 3 4 6 7 11 4 17 16 16 17 18 18
11 12 12 12 11 10 10 8 9 9 8 8 9 10 10 9 14 8 3 3 1 2 2 7 16 10 10 7 10 12 10 5 0 3 4 5 4 4 6 7 8 2 3 2 2 8 8 13 15 15 17 17 20 20
13 12 11 12 12 11 10 9 9 10 10 10 10 10 10 7 19 4 1 4 5 2 1 5 3 7 8 2 6 9 5 3 2 3 5 5 2 4 3 3 5 8 4 4 5 10 9 12 12 16 16 18 18 19
14 13 12 11 12 11 9 9 9 9 10 10 10 8 6 22 7 2 1 3 12 5 4 5 2 5 5 3 2 3 7 3 3 3 4 6 3 4 3 5 6 5 2 3 6 7 11 12 14 15 15 15 17 18
14 14 13 12 11 10 10 10 10 9 10 11 11 4 16 16 10 3 3 11 7 1 4 4 4 4 6 3 3 4 4 4 7 3 5 7 3 5 4 6 6 1 4 5 8 9 9 11 12 14 14 15 17 18
14 14 13 12 12 10 9 9 9 9 11 14 12 19 4 2 2 3 11 8 3 1 2 3 3 1 2 1 2 5 4 5 2 4 4 5 6 5 1 6 4 5 6 8 8 8 10 12 13 14 15 16 15 18
14 13 12 11 10 10 9 9 9 9 11 19 3 1 3 2 11 13 4 3 2 1 2 5 4 4 3 1 3 3 2 2 3 7 5 5 3 7 6 6 4 5 6 7 7 10 12 13 13 15 15 14 14 16
12 13 12 11 10 10 11 11 9 7 12 1 3 2 3 11 3 3 3 4 4 4 6 6 7 5 3 2 2 2 2 3 4 5 5 3 4 5 6 5 5 5 5 5 6 8 10 12 11 13 14 14 14 16
11 11 10 10 10 10 11 8 7 6 1 4 6 4 2 2 2 3 4 5 5 4 5 3 2 2 1 1 2 2 3 4 4 5 4 3 5 7 7 4 5 5 4 6 8 9 11 10 11 11 12 12 13 14
10 8 7 7 6 6 6 9 11 14 10 3 3 3 3 4 5 6 8 5 5 4 4 2 2 2 2 2 2 4 6 4 3 2 2 4 9 7 5 6 6 5 5 6 7 9 10 10 11 12 12 13 13 13
6 5 6 6 5 7 5 9 18 9 2 2 4 4 5 5 6 5 5 1 2 6 5 4 2 3 4 5 5 4 3 5 5 4 4 7 9 8 7 5 5 6 6 7 8 9 10 11 11 12 12 12 12 13
7 6 5 9 10 8 6 11 16 1 2 2 3 5 7 5 3 2 2 3 3 2 2 3 4 5 4 4 4 4 4 5 2 5 5 7 9 8 7 6 6 6 6 7 8 8 9 10 10 11 11 11 12 13
5 3 7 7 9 10 10 14 2 1 2 2 5 4 3 4 3 6 6 3 3 2 1 4 3 4 6 4 6 6 3 1 4 4 6 7 9 8 7 6 7 7 7 7 7 8 8 9 10 10 11 11 12 13
3 4 7 5 8 9 15 4 2 3 3 4 4 6 6 2 2 1 2 2 4 3 2 4 5 3 2 3 3 1 3 6 10 9 8 8 8 8 8 7 7 6 7 7 7 8 8 8 8 9 11 12 11 12
3 1 6 9 9 6 2 2 2 3 5 5 5 5 6 2 2 2 3 4 3 3 3 2 1 4 3 3 4 4 6 7 7 10 10 9 9 9 8 8 6 7 7 6 6 7 8 8 8 8 10 11 10 12
4 5 5 15 6 4 3 3 2 3 6 2 6 4 3 5 6 1 5 4 3 4 5 3 4 3 2 2 2 7 7 7 8 9 9 11 9 9 8 7 7 6 7 7 6 5 5 7 7 7 8 9 9 9
6 1 14 13 5 2 3 3 2 3 3 3 3 3 5 4 2 3 4 4 2 3 5 4 2 3 2 2 3 6 8 8 9 9 10 8 8 9 7 6 6 5 5 6 7 6 5 6 7 7 8 8 9 9
3 7 8 1 1 3 1 4 4 3 2 2 2 1 1 2 3 4 3 3 2 3 3 3 3 2 5 4 7 7 8 8 8 8 9 8 8 8 7 6 4 4 4 4 4 5 2 7 7 7 8 8 9 8
3 2 2 1 1 1 2 4 0 0 2 2 3 3 2 3 3 3 5 2 2 5 2 2 4 3 7 9 8 9 10 9 11 10 10 8 7 6 6 4 5 5 5 5 5 5 6 7 7 8 8 9 9 9
6 2 2 2 2 2 2 2 3 3 3 3 4 3 2 2 3 3 2 2 4 6 5 3 3 5 10 11 12 11 9 11 8 9 7 7 7 6 5 5 4 4 5 5 4 5 6 2 5 7 8 9 10 9
1 3 3 4 4 3 4 4 3 3 3 2 1 3 3 3 3 2 3 4 5 6 7 8 6 8 9 12 9 9 9 8 8 7 8 7 6 5 6 5 5 5 5 4 5 5 5 6 6 8 9 10 11 10
3 4 3 3 4 4 5 5 4 3 4 3 4 3 4 2 2 4 3 3 6 6 7 7 8 8 8 8 9 8 8 8 7 8 6 6 7 6 5 6 6 5 5 4 5 5 6 6 7 8 8 9 12 12
4 5 6 7 4 5 5 4 5 5 3 2 4 4 2 3 4 4 2 4 6 6 6 7 6 5 7 9 9 9 8 7 8 7 6 6 5 5 6 6 6 6 5 5 5 6 6 7 7 9 8 8 5 11
4 4 4 4 2 3 3 2 4 3 5 5 3 5 3 3 3 3 2 3 4 6 6 6 6 7 8 8 9 8 8 8 7 7 6 5 5 5 3 6 7 6 5 6 6 6 7 7 7 8 8 8 9 10
3 5 6 7 4 5 3 4 5 5 5 4 2 6 4 2 3 2 1 3 5 6 6 6 6 8 10 10 9 9 9 11 11 9 8 8 7 8 9 9 9 11 8 8 7 7 7 7 7 8 9 9 9 9
4 3 4 6 4 4 4 3 3 2 3 3 2 2 3 2 1 3 3 3 2 6 7 9 9 9 10 9 8 9 9 10 12 14 12 8 8 7 6 7 7 4 8 8 6 7 8 8 8 8 8 8 9 9
5 6 4 7 5 5 1 2 3 5 5 4 3 2 3 3 2 4 4 5 6 7 8 9 10 10 10 11 10 10 8 6 7 7 7 8 8 7 6 5 5 5 4 3 4 8 6 6 4 4 8 8 9 8
6 6 5 4 2 2 3 4 5 4 3 2 3 1 4 4 3 3 4 1 5 7 9 9 9 9 10 11 10 10 8 6 6 8 9 9 8 7 6 6 5 5 4 5 6 6 6 7 7 8 9 10 11 10
5 5 5 4 2 2 3 1 1 1 1 1 1 0 3 3 3 3 2 3 5 7 7 8 9 10 10 9 8 7 9 9 9 9 12 9 9 8 7 6 6 5 6 7 7 7 8 8 7 8 8 10 11 12
3 2 3 3 3 4 3 2 3 3 2 2 2 2 1 1 3 2 2 4 3 7 7 7 8 8 11 10 12 10 12 12 16 15 16 13 10 7 7 6 6 7 8 8 8 8 9 9 8 8 8 8 9 10
Wind_Direction
301 299 311 332 305 266 247 249 260 259 272 273 273 264 250 211 192 206 62 150 244 231 288 275 266 246 258 255 271 17 272 1 183 233 255 295 268 230 290 204 181 189 205 205 239 242 259 16 347 1 340 334 329 328
300 302 298 307 299 292 269 258 258 263 267 272 272 271 260 273 190 190 179 184 132 232 286 315 280 265 240 254 234 200 324 261 136 274 270 259 275 220 246 257 261 243 275 262 289 248 303 0 353 7 353 332 327 322
293 294 297 295 296 279 278 278 275 271 273 274 274 264 261 275 188 181 164 136 141 262 266 229 259 218 219 220 182 207 211 252 178 169 292 287 274 273 246 265 260 179 235 252 317 317 355 341 22 1 345 331 321 326
283 289 291 291 292 291 285 288 284 284 288 280 289 277 252 249 195 173 168 162 195 89 291 292 143 158 176 181 194 200 155 45 15 257 246 255 270 289 253 268 275 167 180 288 302 330 327 341 355 338 332 319 325 333
277 280 284 282 281 283 280 280 281 282 287 286 288 281 260 244 196 156 109 179 229 249 300 311 302 282 229 263 206 190 223 234 298 267 244 244 259 266 265 272 273 66 326 317 283 355 343 319 326 325 324 330 333 331
275 272 274 275 275 276 273 270 273 277 281 287 292 292 273 233 132 112 195 183 175 167 291 286 68 201 136 20 237 151 176 200 222 243 282 267 110 275 281 270 266 75 46 330 325 335 324 302 316 333 330 336 330 339
270 271 270 269 269 271 277 275 277 280 281 290 294 288 217 146 141 150 183 99 151 163 232 269 263 103 91 96 99 165 182 190 221 267 264 271 237 236 279 250 98 105 20 344 304 317 316 338 331 333 344 330 350 342
270 265 260 260 261 264 268 272 273 275 283 286 309 252 128 105 114 118 65 132 163 112 276 268 272 188 158 166 167 187 166 208 206 224 239 250 215 230 245 139 115 50 3 321 354 330 319 336 338 346 338 358 350 343
265 263 255 254 258 260 265 268 266 269 275 280 139 116 91 71 130 106 140 128 44 316 242 234 254 78 163 243 209 184 206 207 153 234 254 252 228 211 89 113 97 38 347 350 333 338 357 348 349 351 352 358 351 343
262 255 250 254 253 251 248 256 266 273 292 130 95 113 131 146 123 135 128 144 171 207 247 252 232 246 155 159 203 179 171 196 227 217 222 226 232 115 101 77 60 12 9 5 1 1 358 353 353 353 355 358 360 347
265 250 244 239 245 255 260 254 245 273 156 150 122 93 78 144 179 201 154 218 169 224 207 222 241 226 127 220 220 233 207 219 237 186 214 231 154 114 146 112 78 48 43 37 16 357 1 352 355 350 355 8 358 354
270 259 234 236 246 257 267 224 203 188 109 99 98 95 117 177 184 206 210 163 226 245 172 213 180 178 263 195 229 229 249 234 244 172 211 192 118 136 132 104 89 86 58 34 23 8 9 3 9 1 5 5 3 360
276 250 226 229 241 274 236 186 175 131 129 91 70 138 192 168 201 222 191 184 204 193 123 149 161 169 172 237 221 232 231 224 160 210 209 83 139 129 139 132 113 86 67 47 37 25 27 18 22 17 11 13 12 10
232 211 230 240 246 259 240 164 160 146 120 128 172 164 230 182 230 210 213 287 73 109 147 150 167 197 195 191 235 236 226 216 223 219 117 115 118 141 117 119 110 78 66 54 48 32 31 27 27 29 20 20 13 16
225 220 244 250 233 234 213 164 163 172 117 157 225 221 211 233 83 46 230 177 148 89 137 172 211 195 194 226 216 215 203 237 246 61 108 121 135 131 124 110 93 77 68 65 45 35 30 27 28 32 25 25 20 8
248 229 226 219 196 208 191 153 105 91 129 211 235 250 221 255 192 226 220 186 156 117 198 238 206 221 217 200 213 211 231 51 85 96 123 135 132 117 115 100 86 71 66 61 51 38 35 34 30 27 25 20 21 6
151 257 99 177 185 170 135 92 119 176 207 228 226 236 273 327 250 190 179 139 119 152 233 237 205 252 246 249 232 45 51 111 136 155 125 121 125 132 111 109 100 83 73 64 63 52 37 32 29 31 24 9 20 17
247 177 359 175 133 101 72 84 153 199 227 228 239 203 188 225 271 162 123 123 169 208 230 261 299 185 195 245 129 119 125 97 106 115 130 133 117 123 123 107 96 82 74 68 65 66 48 28 29 24 17 8 10 18
312 333 163 132 110 102 143 155 204 234 226 198 235 243 193 204 225 203 135 167 177 281 289 246 244 234 177 68 109 128 117 124 128 119 114 114 120 113 108 103 98 92 84 68 39 45 54 47 25 15 17 10 357 17
281 279 139 127 93 114 150 152 231 261 219 221 226 227 219 221 184 179 165 177 141 251 230 230 230 52 66 67 144 121 120 131 134 137 131 130 125 133 133 120 102 131 125 136 103 355 40 31 22 19 19 6 351 6
127 116 108 117 151 254 192 165 179 221 278 296 327 265 203 209 189 178 128 137 180 243 238 235 164 100 50 57 89 115 134 141 145 138 133 134 131 123 133 136 135 96 90 63 43 91 31 35 15 358 5 5 349 1
94 139 95 40 193 205 240 230 265 146 211 115 298 211 196 198 208 154 122 152 213 261 261 268 130 175 118 113 127 133 130 137 104 96 93 116 130 128 120 127 123 99 74 53 38 33 45 24 13 347 12 356 351 6
116 70 107 167 210 207 206 239 185 218 224 212 180 217 157 199 87 139 183 209 248 225 223 177 142 89 119 120 119 127 125 127 138 127 149 106 102 105 103 86 75 79 88 68 33 30 22 31 24 352 13 7 357 1
95 144 188 179 213 187 180 185 187 231 218 221 243 262 139 95 145 215 237 196 226 194 183 160 185 143 131 139 144 138 157 134 129 123 112 131 123 105 83 84 77 64 45 48 34 23 27 21 5 12 21 13 3 2
178 167 198 178 216 199 190 186 195 206 241 171 229 207 113 135 185 227 227 149 163 168 163 178 173 167 167 157 138 139 124 135 132 133 132 112 106 122 113 92 75 49 15 30 41 23 22 20 22 12 25 25 9 358
194 170 200 189 173 203 195 173 190 212 195 218 231 110 161 182 229 231 113 150 149 176 173 185 179 157 169 150 139 138 148 140 139 137 131 140 148 148 141 153 136 86 37 33 22 19 35 24 29 11 15 31 50 2
178 193 184 228 201 174 200 174 145 186 193 238 151 136 183 225 213 73 93 119 155 163 158 155 194 155 135 128 130 134 125 138 135 125 117 95 73 53 76 93 84 71 51 41 43 30 25 28 29 21 13 19 23 15
257 173 176 181 181 193 208 184 199 215 217 149 167 189 186 321 69 338 115 82 119 172 163 171 145 109 111 129 142 139 123 110 117 120 116 100 90 84 84 82 81 61 65 31 17 40 33 31 26 28 19 18 14 18
205 221 134 174 177 207 228 217 246 2 27 154 176 78 77 65 86 283 76 141 170 130 142 122 114 123 129 135 128 133 141 151 151 152 150 141 140 128 129 132 154 147 115 103 60 39 49 41 35 18 22 28 16 11
183 180 184 179 194 211 87 3 73 35 58 78 103 130 145 109 86 257 260 161 165 165 153 142 146 150 149 153 144 144 150 152 166 174 162 161 127 129 124 119 112 107 93 76 93 121 183 221 135 32 28 35 30 10
141 182 189 178 211 71 59 55 77 57 60 48 353 211 121 131 130 56 325 241 172 144 153 158 157 168 163 154 151 155 140 129 118 114 103 109 121 120 110 107 107 98 84 74 66 44 42 54 41 40 29 32 31 21
170 195 182 143 138 125 96 66 86 79 101 134 118 26 166 169 128 114 231 254 187 176 163 180 165 163 156 152 158 120 111 117 118 125 127 118 111 119 121 106 97 96 91 77 60 55 57 53 52 42 36 31 26 22
73 103 97 129 153 180 168 169 156 130 170 149 139 155 172 195 131 123 201 277 203 166 169 157 140 125 116 112 115 111 88 83 79 71 68 64 58 79 110 107 107 102 91 81 74 71 67 64 60 50 41 34 28 23